Location: Trois-Rivi�res
(46.3500°N, 72.5500°W)
Time: 06:14:47
(UTC-04:00)

Tiangong 1 - Pass Details

Date: 08 October 2017
Orbit: 292 x 320 km, 42.8° (Epoch: 22 October)

Event Time Altitude Azimuth Distance (km) Brightness Sun altitude
Rises 20:33:14 0° 262° (W) 2,029 5.8 -24.3°
Reaches altitude 10° 20:35:18 10° 253° (WSW) 1,194 4.3 -24.6°
Enters shadow 20:35:35 12° 251° (WSW) 1,085 4.0 -24.6°
